{"data":{"norad_id":56345,"epoch":"2026-05-25T00:01:30.811584Z","epoch_age_seconds":74878,"freshness":"FRESH","line1":"1 56345U 23058AE  26145.00105106 -.00000630  00000+0 -39603-4 0  9997","line2":"2 56345  97.4479 144.9176 0001671  77.7262 282.4152 15.05656880169603","mean_motion":15.0565688,"eccentricity":0.0001671,"inclination_deg":97.4479,"raan_deg":144.9176,"arg_perigee_deg":77.7262,"mean_anomaly_deg":282.4152,"bstar":-3.9603e-5,"rev_number":16960,"period_min":95.639319896044,"perigee_km":548.33244392144,"apogee_km":550.64765688169,"semimajor_km":6927.6270504016,"source":"CELESTRAK","updated_at":"2026-05-25T13:38:18.005775Z"}}